Location: DARK SKY Beskydy - Park tmavé oblohy, www.darkskybeskydy.cz
(49.4926°N, 18.5016°E)
Time: 08:53:12
(UTC+02:00)

A-11 Canister half - Pass Details

Date: 26 February 2024
Orbit: 1515 x 1684 km, 47.2° (Epoch: 07 October)

Event Time Altitude Azimuth Distance (km) Brightness Sun altitude
Rises 05:07:14 0° 275° (W) 4,924 - -15.2°
Reaches altitude 10° 05:10:26 10° 274° (W) 3,923 - -14.6°
Exits shadow 05:12:23 18° 273° (W) 3,327 10.1 -14.3°
Maximum altitude 05:20:27 76° 191° (SSW) 1,678 9.1 -13.0°
Drops below altitude 10° 05:30:07 10° 108° (ESE) 3,793 12.4 -11.5°
Sets 05:33:09 0° 107° (ESE) 4,754 13.2 -11.0°
